Flag for Japan Weather past 2 weeks in Sendai, Japan

Now
73 °F

Sunny.


Feels Like: 75 °F
Forecast: 64 / 74 °F
Wind: 6 mph from East

Location: Sendai Airport

Current Time: Jul 3, 2015 at 5:47:18 PM

Latest Report: Jul 3, 2015 at 5:00 PM


Visibility: 10 mi

Pressure: 29.68 "Hg

Humidity: 74%

Dew point: 64 °F

Location of SendaiLocation

Historic Weather in Sendai — Graph

°F

Sendai temperature yesterday

Maximum temperature yesterday: 79 °F (at 2:00 PM)
Minimum temperature yesterday: 70 °F (at 6:00 AM)
Average temperature yesterday: 74 °F

Past Weeks' High & Low Weather Summary

 TemperatureHumidityPressure
High79 °F (Jul 2, 2:00 PM)100% (Jun 27, 6:00 AM)29.95 "Hg (Jun 27, 6:00 AM)
Low57 °F (Jun 29, 6:00 AM)58% (Jul 2, 2:00 PM)29.27 "Hg (Jul 1, 3:00 PM)
Average70 °F83%29.71 "Hg
* Reported Jun 18 4:00 PM — Jul 3 4:00 PM, Sendai, Weather by CustomWeather, © 2015

Note: Actual official high and low records may vary slightly from our data, if they occured in-between our weather recording intervals... More about our weather records

Advertising

Sendai weather history for previous 24 hours

 ConditionsComfort  
Time TempWeatherWind HumidityBarometerVisibility
4:00 PM
Fri, Jul 3
75 °FPassing clouds.5 mph65%29.68 "HgN/A
3:00 PM75 °FPassing clouds.5 mph65%29.68 "HgN/A
2:00 PM75 °FPassing clouds.5 mph69%29.68 "HgN/A
1:00 PM73 °FPartly sunny.5 mph74%29.71 "HgN/A
12:00 PM73 °FBroken clouds.6 mph78%29.71 "HgN/A
11:00 AM72 °FPartly sunny.6 mph83%29.71 "HgN/A
10:00 AM72 °FPartly sunny.6 mph78%29.71 "HgN/A
9:00 AM72 °FPartly sunny.3 mph88%29.71 "HgN/A
8:00 AM72 °FPartly sunny.5 mph83%29.71 "HgN/A
7:00 AM72 °FPartly sunny.3 mph88%29.71 "HgN/A
6:00 AM70 °FPartly sunny.2 mph94%29.68 "HgN/A
9:00 PM
Thu, Jul 2
72 °FPassing clouds.1 mph83%29.59 "HgN/A
8:00 PM72 °FPartly cloudy.2 mph83%29.56 "HgN/A
7:00 PM72 °FPartly sunny.9 mph83%29.56 "HgN/A
6:00 PM73 °FBroken clouds.12 mph74%29.56 "HgN/A
5:00 PM75 °FPartly sunny.12 mph74%29.53 "HgN/A
Weather by CustomWeather, © 2015

See weather overviewHow to use our weather pages